Torna al catalogo

FENGYUN 1C DEB

AttivoSSO
NORAD 30947·DEBRIS·🇨🇳 China

Lanciato May 10, 1999 da Taiyuan Satellite Launch Center

Loading…

Prossimi Passaggi (prossime 24 ore)

TLE

AggiornatoSource: Space-Track

Epoca: Sep 14, 2026, 16:15 UTC

1 30947U 99025BAM 26257.67759791  .00000399  00000-0  13882-3 0  9997
2 30947  98.7798 158.9941 0096581 150.0889 210.5865 14.38452598 24552

Traccia FENGYUN 1C DEB in tempo reale con AllMySat

Download on the App Store